Aeroporto :
LOGIN :

Iscrizione | Disclaimer

   EN    FR    IT 

 










Sommario :    VFR   VFR Marginale   IFR   IFR Intensivo   IFR Molto Intensivo
Visibilità : 
Base nubi : 
>= 8 km
>= 3000ft
5 / 8 km
1000 / 3000 ft
1500m / 5 km
500 / 1000 ft
800 / 1500m
200 / 500 ft
< 800m
< 200 ft
Simboli :   Temporali  Nebbia  Neve Forte  Precipitazioni Forti  Vento > 20 kt
SIGMETs :   Varie  Temporali  Ghiacco  Turbolenza  Onda orograficha  Ceneri Vulcaniche







- Altitudine del aeroporto : 39 ft
- Codice IATA : ANR


EBAW - Anvers / Antwerpen Deurne

ULTIMO METAR :
  • 170020Z AUTO 28006KT CAVOK 15/11 Q1018

METARs OBSOLETI :
  • 162350Z AUTO 30004KT 250V360 CAVOK 15/12 Q1018
  • 162320Z AUTO 15003KT CAVOK 13/08 Q1018
  • 162250Z AUTO VRB01KT CAVOK 12/10 Q1018
  • 162220Z AUTO VRB01KT CAVOK 13/10 Q1018
  • 162150Z AUTO 17003KT CAVOK 13/09 Q1018

TAF COR TAF EBAW
Valido dal 17 a 00 ore il 17 a 09 ore UTC


162340Z 1700/1709 27003KT 8000 NSC
TEMPO 1702/1708 3000 BR
PROB30
TEMPO 1704/1707 1200 BCFG BKN002
Nessun NOTAM noto per questo aeroporto.



MetMap, La meteo Aeronautica in un colpo d'occhio ! - Copyright ORBIFLY Dicembre 2007 - Disclaimer

ORBIFLY MET'MAP TEAM :

Programmazione e sviluppo : Alexandra Zaïnal
Concezione e sviluppo : Baudouin d'Aumeries
Co-Programmazione e sviluppo : Marc-Olivier Méhu
Supporto tecnico e logistico : Manuel Goepfert
Aiuto per la traduzione : Arnaldo La Scala

Contatto : metmap@orbifly.com




FONTI E CREDITI :

   NOAA